Location: Most
(50.5133°N, 13.6207°E)
Time: 13:50:07
(UTC+01:00)

UNHA 3 R/B - Pass Details

Date: 22 September 2020
Orbit: 479 x 556 km, 97.4° (Epoch: 27 October)

Event Time Altitude Azimuth Distance (km) Brightness Sun altitude
Rises 05:20:06 0° 14° (NNE) 2,611 9.3 -15.2°
Reaches altitude 10° 05:22:11 10° 16° (NNE) 1,733 8.3 -14.9°
Maximum altitude 05:25:55 75° 102° (ESE) 540 5.3 -14.3°
Drops below altitude 10° 05:29:43 10° 189° (S) 1,764 7.6 -13.7°
Enters shadow 05:31:34 - 191° (S) 2,540 8.4 -13.5°
